Voltar ao catálogo

COSMOS 1275 DEB

AtivoPO
NORAD 13456·DEBRIS·🇷🇺 Russia

Lançado Jun 4, 1981 de Plesetsk Cosmodrome

Loading…

Próximas Passagens (próximas 24 horas)

TLE

AtualizadoSource: Space-Track

Época: Sep 14, 2026, 01:34 UTC

1 13456U 81053FC  26257.06534413  .00002988  00000-0  22572-2 0  9991
2 13456  82.8276 293.1812 0147475 162.0835 227.0303 13.88812482224508

Acompanhe COSMOS 1275 DEB em tempo real com AllMySat

Download on the App Store